Location: Newark
(48.3500°N, 1.3500°E)
Time: 10:36:12
(UTC+00:00)

N. Korean satellite - Visible Passes

Search period start: 28 November 2020 00:00
Search period end: 08 December 2020 00:00
Orbit: 452 x 504 km, 97.2° (Epoch: 27 November)

Date Brightness Start Highest point End Pass type
(mag) Time Alt. Az. Time Alt. Az. Time Alt. Az.
28 Nov 6.7 05:27:11 10° NNE 05:30:46 74° ESE 05:34:23 10° S visible
28 Nov 9.8 17:40:56 10° WSW 17:42:40 13° W 17:44:25 10° WNW visible
29 Nov 8.2 05:01:05 10° NNE 05:04:25 35° E 05:07:46 10° SSE visible
29 Nov 7.9 06:34:55 10° NNW 06:37:33 19° WNW 06:40:12 10° WSW visible
29 Nov 9.0 17:13:15 10° SSW 17:16:09 26° W 17:19:07 10° NW visible
30 Nov 9.4 04:35:22 10° NE 04:37:58 18° E 04:40:34 10° SE visible
30 Nov 7.1 06:08:05 10° N 06:11:25 36° WNW 06:14:46 10° SW visible
30 Nov 7.4 16:46:23 10° S 16:49:44 54° W 16:53:09 10° NNW visible
01 Dec 6.4 05:41:34 10° N 05:45:11 74° WNW 05:48:50 10° SSW visible
02 Dec 7.4 05:15:18 10° NNE 05:18:51 52° E 05:22:27 10° S visible
02 Dec 8.3 06:49:48 10° NNW 06:51:48 14° WNW 06:53:49 10° W visible
02 Dec 9.6 17:28:11 10° SW 17:30:37 18° W 17:33:05 10° NW visible
03 Dec 8.8 04:49:18 10° NE 04:52:25 26° E 04:55:33 10° SSE visible
03 Dec 7.6 06:22:39 10° N 06:25:42 26° WNW 06:28:46 10° SW visible
03 Dec 8.3 17:00:56 10° SSW 17:04:07 35° W 17:07:22 10° NNW visible
04 Dec 9.8 04:23:55 10° ENE 04:25:53 14° E 04:27:53 10° ESE visible
04 Dec 6.7 05:55:58 10° N 05:59:30 49° WNW 06:03:03 10° SSW visible
04 Dec 6.7 16:34:16 10° S 16:37:42 78° WSW 16:41:12 10° NNW visible
05 Dec 6.6 05:29:32 10° NNE 05:33:11 80° ESE 05:36:52 10° S visible
05 Dec 9.9 17:43:26 10° WSW 17:45:02 13° W 17:46:38 10° WNW visible
06 Dec 8.1 05:03:20 10° NNE 05:06:47 38° E 05:10:14 10° SSE visible
06 Dec 8.0 06:37:16 10° NNW 06:39:52 19° WNW 06:42:29 10° WSW visible
06 Dec 9.1 17:15:34 10° SSW 17:18:27 24° W 17:21:22 10° NW visible
07 Dec 9.3 04:37:31 10° NE 04:40:16 20° E 04:43:02 10° SE visible
07 Dec 7.2 06:10:21 10° N 06:13:42 34° WNW 06:17:03 10° SW visible
07 Dec 7.5 16:48:35 10° S 16:51:57 50° W 16:55:23 10° NNW visible
